Regional Weather Roundup
Issued by NWS Cleveland, OH

Home | Current Version | Previous Version | Text Only | Print | Product List | Glossary On
Versions: 1 2 3 4 5 6 7 8 9 10 11 12 13 14 15 16 17 18 19 20 21 22 23 24 25 26 27 28 29 30 31 32 33 34 35 36 37 38 39 40 41 42 43 44 45 46 47 48 49 50
000
ASUS41 KCLE 250002
RWRCLE
OHIO REGIONAL WEATHER ROUNDUP
NATIONAL WEATHER SERVICE CLEVELAND, OH
700 PM EST FRI NOV 24 2017

NOTE: "FAIR" INDICATES FEW OR NO CLOUDS BELOW 12,000 FEET WITH NO
SIGNIFICANT WEATHER AND/OR OBSTRUCTIONS TO VISIBILITY.

OHZ001>008-015>018-024>027-034-035-043-044-250100-
   NORTHWEST OHIO

CITY           SKY/WX    TMP DP  RH WIND       PRES   REMARKS
DEFIANCE       PTCLDY    50  32  50 S20G26    29.64F
FINDLAY        CLEAR     47  29  49 S16       29.69F
TOLEDO EXPRESS CLEAR     49  34  56 S12G22    29.64F
TOLEDO EXEC    CLEAR     48  31  51 S18       29.67F
LIMA           CLEAR     47  30  51 S16       29.71F
$$

OHZ009>014-019>023-028>033-038-089-250100-
   NORTHEAST OHIO

CITY           SKY/WX    TMP DP  RH WIND       PRES   REMARKS
CLE-HOPKINS    MOCLDY    50  26  39 S13G21    29.76R
CLE-LAKEFRONT  CLEAR     50  25  37 S13       29.72S
CUY CO. ARPT   PTCLDY    50  27  40 S14G23    29.74R
LORAIN-ELYRIA  CLEAR     47  25  42 S14       29.73S
ASHTABULA      CLEAR     46  23  40 S9        29.75S
AKRON-CANTON   PTCLDY    45  23  42 S12       29.77F
WOOSTER        CLEAR     44  25  47 S10       29.77S
MANSFIELD      CLEAR     46  27  47 S16       29.75S
YOUNGSTOWN     PTCLDY    47  23  38 S8        29.77S
$$

OHZ042-051>053-060>062-070>072-077>081-250100-
  SOUTHWEST OHIO

CITY           SKY/WX    TMP DP  RH WIND       PRES   REMARKS
CINC-COVINGTON PTCLDY    47  30  51 S10       29.80S
CINC-LUNKEN    CLEAR     45  29  53 SW7       29.82S
HAMILTON       CLEAR     48  29  47 CALM      29.81S
DAYTON         PTCLDY    49  28  44 S15G22    29.77S
WRIGHT-PAT AFB NOT AVBL
DAYTON GENERAL CLEAR     46  27  47 S10       29.78S
WILMINGTON     CLEAR     44  29  55 S9        29.80S
$$

OHZ036-037-039>041-045>050-054>059-063>069-073>076-082>088-250100-
  CENTRAL AND SOUTHEAST OHIO

CITY           SKY/WX    TMP DP  RH WIND       PRES   REMARKS
COLUMBUS       PTCLDY    47  27  45 S6        29.80R
OSU AIRPORT    CLEAR     49  28  44 S10       29.78S
BOLTON FIELD   CLEAR     45  28  53 S8        29.80S
RICKENBACK AFB CLEAR     45  27  49 S7        29.80S
NEWARK         CLEAR     47  23  38 S6        29.80S
MARION         CLEAR     47  28  47 S13       29.76S
LANCASTER      PTCLDY    44  26  49 S6        29.81S
ZANESVILLE     CLEAR     47  23  38 S8        29.81F
NEW PHILLY     NOT AVBL
$$



USA.gov is the U.S. government's official web portal to all federal, state and local government web resources and services.